Simultaneous Nadir Overpasses (SNOs) Predictions

Prediction of SNOs between NOAA-21 and PACE Satellite Orbit:

Table of predicted SNOs for the next 14.0 days since TLE Epoch: 6/22/2024
Index Date (NOAA-21) Time (NOAA-21) Lat,Lon (NOAA-21) SZA (NOAA-21 ) Date (PACE) Time (PACE) Lat,Lon (PACE) SZA (PACE ) Distance(km) Time Diff (sec)
1 06/22/2024 11:15:40 80.93, -41.40 61.31 06/22/2024 11:16:53 81.21, -40.63 61.33 34.02 73
2 06/22/2024 12:05:31 -79.61, 143.13 121.71 06/22/2024 12:05:12 -79.62, 142.98 121.68 3.01 19
3 06/24/2024 15:41:21 79.80, -92.47 58.68 06/24/2024 15:42:11 79.80, -92.52 58.66 0.94 50
4 06/24/2024 16:31:59 -79.59, 76.67 121.69 06/24/2024 16:31:15 -79.60, 76.58 121.65 1.90 44
5 06/26/2024 20:07:48 79.75,-158.68 58.69 06/26/2024 20:08:13 79.76,-158.77 58.69 1.82 25
6 06/26/2024 20:58:25 -79.51, 10.73 121.74 06/26/2024 20:57:16 -79.53, 10.60 121.69 2.99 69
7 06/29/2024 00:34:16 79.74, 134.79 58.79 06/29/2024 00:34:15 79.74, 134.87 58.77 1.52 1
8 07/01/2024 04:10:03 -79.87,-100.29 120.84 07/01/2024 04:11:11 -79.87,-100.31 120.88 0.36 68
9 07/01/2024 05:00:43 79.71, 68.53 58.87 07/01/2024 05:00:16 79.70, 68.66 58.86 2.63 27
10 07/03/2024 08:36:29 -79.80,-166.26 120.79 07/03/2024 08:37:11 -79.81,-166.34 120.80 1.72 42
11 07/03/2024 09:27:09 79.64, 2.52 58.92 07/03/2024 09:26:16 79.64, 2.60 58.94 1.53 53



Historial Predications of SNOs between NOAA-21 and PACE
